Weather History for Kalispell, MT

Change the Weather History Date:

Thursday, June 27, 2013

  Actual Average Record
Temperature  
Mean Temperature 63 °F 60 °F  
Max Temperature 79 °F 75 °F 90 °F (1987)
Min Temperature 47 °F 46 °F 34 °F (1997)
Degree Days  
Heating Degree Days 2 5  
Month to date heating degree days 186 201  
Since 1 June heating degree days 186 201  
Since 1 July heating degree days 7452 8024  
Cooling Degree Days 0 1  
Month to date cooling degree days 3 8  
Year to date cooling degree days 3 11  
Since 1 June cooling degree days 3 8  
Growing Degree Days 13 (Base 50)    
Moisture  
Dew Point 50 °F    
Average Humidity 69    
Maximum Humidity 100    
Minimum Humidity 37    
Precipitation  
Precipitation 0.00 in 0.07 in 0.67 in (1945)
Month to date precipitation 2.71 2.34  
Year to date precipitation 9.01 8.95  
Snow  
Snow 0.00 in - - ()
Month to date snowfall 0.0  
Year to date snowfall 10.1  
Since 1 July snowfall 18.9  
Snow Depth 0.00 in    
Sea Level Pressure  
Sea Level Pressure 30.17 in    
Wind  
Wind Speed 3 mph (SSE)    
Max Wind Speed 12 mph    
Max Gust Speed 15 mph    
Visibility 8 miles    
Events Fog    
T = Trace of Precipitation, MM = Missing Value Source: NWS Daily Summary

Daily Weather History Graph

Daily Weather History Graph

Search for Another Location

Airport:

Trip Planner

Search our weather history database for the weather conditions in past years. The results will help you decide how hot, cold, wet, or windy it might be!

Date:

Astronomy

Jun. 27, 2013 Rise Set
Actual Time 5:38 AM MDT 9:42 PM MDT
Civil Twilight 4:56 AM MDT 10:23 PM MDT
Nautical Twilight 3:58 AM MDT 11:21 PM MDT
Astronomical Twilight 2:13 AM MDT 1:05 AM MDT
Moon No Moon Rise 11:09 AM MDT (6/27)
Length of Visible Light 17h 27m
Length of Day
16h 03m
Waning Gibbous, 76% of the Moon is Illuminated
Jun 27
Waning Gibbous
Jun 29
Last Quarter
Jul 8
New
Jul 15
First Quarter
Jul 22
Full

Hourly Weather History & Observations

Time (MDT) Temp. Dew Point Humidity Pressure Visibility Wind Dir Wind Speed Gust Speed Precip Events Conditions
12:55 AM 59.0 °F 52.0 °F 78% 30.09 in 10.0 mi SSW 3.5 mph - 0.00 in   Scattered Clouds
1:55 AM 55.9 °F 51.1 °F 84% 30.10 in 10.0 mi Calm Calm - N/A   Partly Cloudy
2:55 AM 54.0 °F 51.1 °F 90% 30.12 in 10.0 mi North - - N/A   Overcast
3:55 AM 55.0 °F 52.0 °F 89% 30.12 in 10.0 mi Calm Calm - N/A   Overcast
4:55 AM 52.0 °F 50.0 °F 93% 30.14 in 10.0 mi Calm Calm - N/A   Partly Cloudy
5:30 AM 48.2 °F 48.2 °F 100% 30.17 in 1.5 mi Calm Calm - N/A   Clear
5:37 AM 48.2 °F 46.4 °F 93% 30.17 in 0.5 mi Calm Calm - N/A Fog Fog
5:46 AM 50.0 °F 48.2 °F 94% 30.18 in 0.5 mi NNW 5.8 mph - N/A Fog Fog
5:51 AM 50.0 °F 48.2 °F 94% 30.17 in 1.2 mi Calm Calm - N/A   Partly Cloudy
5:55 AM 48.9 °F 48.0 °F 97% 30.17 in 4.0 mi Calm Calm - N/A   Partly Cloudy
6:55 AM 53.1 °F 51.1 °F 93% 30.18 in 10.0 mi Calm Calm - N/A   Clear
7:55 AM 57.0 °F 52.0 °F 83% 30.19 in 10.0 mi Calm Calm - N/A   Clear
8:55 AM 63.0 °F 53.1 °F 70% 30.20 in 10.0 mi Calm Calm - N/A   Clear
9:55 AM 64.9 °F 50.0 °F 58% 30.22 in 10.0 mi SE 5.8 mph - N/A   Clear
10:55 AM 68.0 °F 50.0 °F 52% 30.20 in 10.0 mi SSE 6.9 mph - N/A   Clear
11:55 AM 70.0 °F 48.9 °F 47% 30.20 in 10.0 mi SE 6.9 mph - N/A   Clear
12:55 PM 72.0 °F 51.1 °F 48% 30.19 in 10.0 mi SSE 8.1 mph - N/A   Clear
1:55 PM 73.9 °F 50.0 °F 43% 30.18 in 10.0 mi South 5.8 mph - N/A   Partly Cloudy
2:55 PM 73.9 °F 50.0 °F 43% 30.18 in 10.0 mi SE 4.6 mph - N/A   Clear
3:55 PM 73.9 °F 50.0 °F 43% 30.17 in 10.0 mi South 5.8 mph - N/A   Clear
4:55 PM 75.9 °F 51.1 °F 42% 30.18 in 10.0 mi South 4.6 mph - N/A   Clear
5:55 PM 78.1 °F 50.0 °F 37% 30.17 in 10.0 mi SSE 4.6 mph - N/A   Clear
6:55 PM 77.0 °F 51.1 °F 40% 30.17 in 10.0 mi South 3.5 mph - N/A   Clear
7:55 PM 77.0 °F 52.0 °F 42% 30.16 in 10.0 mi South 3.5 mph - N/A   Partly Cloudy
8:55 PM 73.0 °F 55.0 °F 53% 30.17 in 10.0 mi Calm Calm - N/A   Partly Cloudy
9:55 PM 68.0 °F 50.0 °F 52% 30.19 in 10.0 mi NNW 4.6 mph - N/A   Clear
10:55 PM 64.0 °F 51.1 °F 63% 30.20 in 10.0 mi NNE 3.5 mph - N/A   Clear
11:55 PM 59.0 °F 52.0 °F 78% 30.21 in 10.0 mi Calm Calm - N/A   Clear